Time,TemperatureF,DewpointF,PressureIn,WindDirection,WindDirectionDegrees,WindSpeedMPH,WindSpeedGustMPH,Humidity,HourlyPrecipIn,Conditions,Clouds,dailyrainin,SoftwareType,DateUTC
2013-01-22 00:04:00,28.0,12.0,30.45,West,262,2.0,12.0,52,0.00,,,0.00,weatherlink.com 1.10,2013-01-22 05:04:00,
2013-01-22 00:20:00,27.7,12.0,30.46,WSW,250,2.0,12.0,51,0.00,,,0.00,weatherlink.com 1.10,2013-01-22 05:20:00,
2013-01-22 00:35:00,27.5,12.0,30.45,SW,233,3.0,9.0,52,0.00,,,0.00,weatherlink.com 1.10,2013-01-22 05:35:00,
2013-01-22 00:50:00,27.3,12.0,30.45,WSW,253,2.0,6.0,52,0.00,,,0.00,weatherlink.com 1.10,2013-01-22 05:50:00,
2013-01-22 01:05:00,26.9,13.0,30.44,West,264,1.0,9.0,55,0.00,,,0.00,weatherlink.com 1.10,2013-01-22 06:05:00,
2013-01-22 01:20:00,26.5,13.0,30.44,WSW,250,1.0,7.0,56,0.00,,,0.00,weatherlink.com 1.10,2013-01-22 06:20:00,
2013-01-22 01:35:00,26.0,12.0,30.44,West,259,3.0,6.0,56,0.00,,,0.00,weatherlink.com 1.10,2013-01-22 06:35:00,
2013-01-22 01:50:00,25.7,11.0,30.44,WSW,250,2.0,8.0,55,0.00,,,0.00,weatherlink.com 1.10,2013-01-22 06:50:00,
2013-01-22 02:05:00,25.5,12.0,30.44,WSW,255,1.0,8.0,57,0.00,,,0.00,weatherlink.com 1.10,2013-01-22 07:05:00,
2013-01-22 02:20:00,25.2,12.0,30.44,West,266,5.0,9.0,57,0.00,,,0.00,weatherlink.com 1.10,2013-01-22 07:20:00,
2013-01-22 02:35:00,25.0,11.0,30.45,West,274,2.0,6.0,56,0.00,,,0.00,weatherlink.com 1.10,2013-01-22 07:35:00,
2013-01-22 02:50:00,24.9,11.0,30.44,WSW,253,6.0,10.0,56,0.00,,,0.00,weatherlink.com 1.10,2013-01-22 07:50:00,
2013-01-22 03:05:00,24.7,11.0,30.44,West,259,2.0,8.0,55,0.00,,,0.00,weatherlink.com 1.10,2013-01-22 08:05:00,
2013-01-22 03:20:00,24.5,10.0,30.45,WSW,257,0.0,6.0,55,0.00,,,0.00,weatherlink.com 1.10,2013-01-22 08:20:00,
2013-01-22 03:35:00,24.3,10.0,30.45,WSW,255,5.0,7.0,55,0.00,,,0.00,weatherlink.com 1.10,2013-01-22 08:35:00,
2013-01-22 03:50:00,23.8,10.0,30.45,West,276,1.0,10.0,57,0.00,,,0.00,weatherlink.com 1.10,2013-01-22 08:50:00,
2013-01-22 04:05:00,23.4,10.0,30.44,West,264,1.0,11.0,58,0.00,,,0.00,weatherlink.com 1.10,2013-01-22 09:05:00,
2013-01-22 04:20:00,23.1,10.0,30.44,WSW,248,3.0,11.0,58,0.00,,,0.00,weatherlink.com 1.10,2013-01-22 09:20:00,
2013-01-22 04:35:00,22.8,10.0,30.44,West,260,11.0,11.0,57,0.00,,,0.00,weatherlink.com 1.10,2013-01-22 09:35:00,
2013-01-22 04:51:00,22.5,9.0,30.44,West,259,2.0,8.0,57,0.00,,,0.00,weatherlink.com 1.10,2013-01-22 09:51:00,
2013-01-22 05:05:00,22.3,9.0,30.45,WSW,252,1.0,7.0,56,0.00,,,0.00,weatherlink.com 1.10,2013-01-22 10:05:00,
2013-01-22 05:20:00,22.2,8.0,30.46,West,264,5.0,11.0,54,0.00,,,0.00,weatherlink.com 1.10,2013-01-22 10:20:00,
2013-01-22 05:35:00,22.0,8.0,30.47,WNW,291,1.0,11.0,54,0.00,,,0.00,weatherlink.com 1.10,2013-01-22 10:35:00,
2013-01-22 05:50:00,21.9,8.0,30.47,WSW,247,5.0,10.0,55,0.00,,,0.00,weatherlink.com 1.10,2013-01-22 10:50:00,
2013-01-22 06:05:00,21.8,8.0,30.47,West,262,2.0,8.0,56,0.00,,,0.00,weatherlink.com 1.10,2013-01-22 11:05:00,
2013-01-22 06:20:00,21.6,8.0,30.48,WSW,238,8.0,11.0,56,0.00,,,0.00,weatherlink.com 1.10,2013-01-22 11:20:00,
2013-01-22 06:36:00,21.6,8.0,30.48,West,262,4.0,11.0,56,0.00,,,0.00,weatherlink.com 1.10,2013-01-22 11:36:00,
2013-01-22 06:51:00,21.4,7.0,30.48,West,260,4.0,11.0,55,0.00,,,0.00,weatherlink.com 1.10,2013-01-22 11:51:00,
2013-01-22 07:06:00,21.3,7.0,30.50,SW,228,6.0,8.0,55,0.00,,,0.00,weatherlink.com 1.10,2013-01-22 12:06:00,
2013-01-22 07:21:00,21.0,7.0,30.50,WSW,250,4.0,13.0,55,0.00,,,0.00,weatherlink.com 1.10,2013-01-22 12:21:00,
2013-01-22 07:36:00,20.6,7.0,30.50,WSW,258,4.0,5.0,56,0.00,,,0.00,weatherlink.com 1.10,2013-01-22 12:36:00,
2013-01-22 07:51:00,20.2,7.0,30.51,ENE,66,2.0,8.0,56,0.00,,,0.00,weatherlink.com 1.10,2013-01-22 12:51:00,
2013-01-22 08:21:00,19.7,7.0,30.53,West,262,1.0,5.0,59,0.00,,,0.00,weatherlink.com 1.10,2013-01-22 13:21:00,
2013-01-22 08:36:00,19.7,8.0,30.53,SSW,210,2.0,5.0,60,0.00,,,0.00,weatherlink.com 1.10,2013-01-22 13:36:00,
2013-01-22 08:51:00,19.8,7.0,30.54,WSW,248,0.0,5.0,59,0.00,,,0.00,weatherlink.com 1.10,2013-01-22 13:51:00,
2013-01-22 09:06:00,20.3,7.0,30.55,West,259,1.0,6.0,57,0.00,,,0.00,weatherlink.com 1.10,2013-01-22 14:06:00,
2013-01-22 09:21:00,21.3,8.0,30.55,WSW,246,3.0,6.0,56,0.00,,,0.00,weatherlink.com 1.10,2013-01-22 14:21:00,
2013-01-22 09:36:00,21.9,7.0,30.56,WSW,240,4.0,8.0,53,0.00,,,0.00,weatherlink.com 1.10,2013-01-22 14:36:00,
2013-01-22 09:51:00,22.9,8.0,30.56,SW,231,8.0,8.0,53,0.00,,,0.00,weatherlink.com 1.10,2013-01-22 14:51:00,
2013-01-22 10:06:00,23.5,7.0,30.57,SW,235,6.0,9.0,50,0.00,,,0.00,weatherlink.com 1.10,2013-01-22 15:06:00,
2013-01-22 10:21:00,24.4,8.0,30.58,West,264,6.0,7.0,49,0.00,,,0.00,weatherlink.com 1.10,2013-01-22 15:21:00,
2013-01-22 10:36:00,25.1,7.0,30.59,West,271,4.0,10.0,47,0.00,,,0.00,weatherlink.com 1.10,2013-01-22 15:36:00,
2013-01-22 11:06:00,26.7,7.0,30.60,SSW,212,7.0,13.0,44,0.00,,,0.00,weatherlink.com 1.10,2013-01-22 16:06:00,
2013-01-22 11:21:00,27.4,7.0,30.60,WSW,243,7.0,10.0,43,0.00,,,0.00,weatherlink.com 1.10,2013-01-22 16:21:00,
2013-01-22 11:36:00,28.3,8.0,30.60,WSW,248,2.0,9.0,43,0.00,,,0.00,weatherlink.com 1.10,2013-01-22 16:36:00,
2013-01-22 11:52:00,30.1,9.0,30.60,West,260,0.0,8.0,41,0.00,,,0.00,weatherlink.com 1.10,2013-01-22 16:52:00,
2013-01-22 12:06:00,30.8,9.0,30.60,West,279,3.0,7.0,40,0.00,,,0.00,weatherlink.com 1.10,2013-01-22 17:06:00,
2013-01-22 12:22:00,32.1,10.0,30.60,West,259,4.0,8.0,39,0.00,,,0.00,weatherlink.com 1.10,2013-01-22 17:22:00,
2013-01-22 12:36:00,32.1,8.0,30.59,WSW,258,6.0,10.0,37,0.00,,,0.00,weatherlink.com 1.10,2013-01-22 17:36:00,
2013-01-22 12:52:00,33.3,8.0,30.58,WSW,258,3.0,9.0,35,0.00,,,0.00,weatherlink.com 1.10,2013-01-22 17:52:00,
2013-01-22 13:07:00,34.3,8.0,30.58,WSW,256,6.0,11.0,34,0.00,,,0.00,weatherlink.com 1.10,2013-01-22 18:07:00,
2013-01-22 13:22:00,34.4,7.0,30.57,SW,233,5.0,9.0,31,0.00,,,0.00,weatherlink.com 1.10,2013-01-22 18:22:00,
2013-01-22 13:37:00,34.8,5.0,30.56,WSW,250,5.0,8.0,29,0.00,,,0.00,weatherlink.com 1.10,2013-01-22 18:37:00,
2013-01-22 13:52:00,36.0,7.0,30.57,West,271,2.0,10.0,30,0.00,,,0.00,weatherlink.com 1.10,2013-01-22 18:52:00,
2013-01-22 14:22:00,36.7,5.0,30.55,WSW,239,8.0,10.0,26,0.00,,,0.00,weatherlink.com 1.10,2013-01-22 19:22:00,
2013-01-22 14:37:00,36.3,6.0,30.56,WSW,250,4.0,8.0,28,0.00,,,0.00,weatherlink.com 1.10,2013-01-22 19:37:00,
2013-01-22 14:52:00,37.3,8.0,30.56,WSW,246,5.0,7.0,29,0.00,,,0.00,weatherlink.com 1.10,2013-01-22 19:52:00,
2013-01-22 15:07:00,37.3,7.0,30.56,WSW,242,6.0,8.0,28,0.00,,,0.00,weatherlink.com 1.10,2013-01-22 20:07:00,
2013-01-22 15:22:00,37.4,8.0,30.57,WSW,257,8.0,9.0,29,0.00,,,0.00,weatherlink.com 1.10,2013-01-22 20:22:00,
2013-01-22 15:37:00,37.7,9.0,30.56,WSW,257,5.0,8.0,30,0.00,,,0.00,weatherlink.com 1.10,2013-01-22 20:37:00,
2013-01-22 15:52:00,35.7,8.0,30.57,SW,225,6.0,10.0,31,0.00,,,0.00,weatherlink.com 1.10,2013-01-22 20:52:00,
2013-01-22 16:07:00,35.7,8.0,30.59,SW,229,8.0,10.0,32,0.00,,,0.00,weatherlink.com 1.10,2013-01-22 21:07:00,
2013-01-22 16:22:00,34.6,9.0,30.59,WSW,246,1.0,9.0,34,0.00,,,0.00,weatherlink.com 1.10,2013-01-22 21:22:00,
2013-01-22 16:37:00,32.8,8.0,30.60,SSW,208,2.0,7.0,35,0.00,,,0.00,weatherlink.com 1.10,2013-01-22 21:37:00,
2013-01-22 16:52:00,32.0,8.0,30.60,WSW,255,2.0,5.0,36,0.00,,,0.00,weatherlink.com 1.10,2013-01-22 21:52:00,
2013-01-22 17:07:00,31.0,9.0,30.60,West,268,6.0,7.0,39,0.00,,,0.00,weatherlink.com 1.10,2013-01-22 22:07:00,
2013-01-22 17:22:00,30.6,8.0,30.61,WSW,250,2.0,6.0,39,0.00,,,0.00,weatherlink.com 1.10,2013-01-22 22:22:00,
2013-01-22 17:37:00,30.3,7.0,30.61,WSW,238,4.0,5.0,38,0.00,,,0.00,weatherlink.com 1.10,2013-01-22 22:37:00,
2013-01-22 17:52:00,29.4,8.0,30.60,WSW,252,1.0,4.0,40,0.00,,,0.00,weatherlink.com 1.10,2013-01-22 22:52:00,
2013-01-22 18:07:00,28.2,8.0,30.61,West,266,2.0,5.0,42,0.00,,,0.00,weatherlink.com 1.10,2013-01-22 23:07:00,
2013-01-22 18:22:00,27.7,7.0,30.63,WSW,257,2.0,4.0,42,0.00,,,0.00,weatherlink.com 1.10,2013-01-22 23:22:00,
2013-01-22 18:37:00,27.0,7.0,30.63,WSW,258,0.0,5.0,43,0.00,,,0.00,weatherlink.com 1.10,2013-01-22 23:37:00,
2013-01-22 18:52:00,26.5,7.0,30.63,WSW,250,2.0,5.0,44,0.00,,,0.00,weatherlink.com 1.10,2013-01-22 23:52:00,
2013-01-22 19:07:00,26.1,6.0,30.63,WSW,246,0.0,8.0,43,0.00,,,0.00,weatherlink.com 1.10,2013-01-23 00:07:00,
2013-01-22 19:22:00,25.9,7.0,30.64,WSW,255,0.0,5.0,44,0.00,,,0.00,weatherlink.com 1.10,2013-01-23 00:22:00,
2013-01-22 19:37:00,25.5,7.0,30.65,WSW,248,1.0,7.0,45,0.00,,,0.00,weatherlink.com 1.10,2013-01-23 00:37:00,
2013-01-22 19:52:00,25.2,7.0,30.66,WSW,258,2.0,7.0,45,0.00,,,0.00,weatherlink.com 1.10,2013-01-23 00:52:00,
2013-01-22 20:07:00,25.0,6.0,30.67,West,269,0.0,10.0,45,0.00,,,0.00,weatherlink.com 1.10,2013-01-23 01:07:00,
2013-01-22 20:22:00,24.8,5.0,30.65,West,262,2.0,6.0,43,0.00,,,0.00,weatherlink.com 1.10,2013-01-23 01:22:00,
2013-01-22 20:37:00,25.0,5.0,30.65,WSW,258,0.0,5.0,43,0.00,,,0.00,weatherlink.com 1.10,2013-01-23 01:37:00,
2013-01-22 20:52:00,25.3,6.0,30.65,SW,233,0.0,4.0,43,0.00,,,0.00,weatherlink.com 1.10,2013-01-23 01:52:00,
2013-01-22 21:07:00,25.4,6.0,30.65,WSW,239,1.0,9.0,44,0.00,,,0.00,weatherlink.com 1.10,2013-01-23 02:07:00,
2013-01-22 21:22:00,25.4,6.0,30.66,SW,229,5.0,11.0,43,0.00,,,0.00,weatherlink.com 1.10,2013-01-23 02:22:00,
2013-01-22 21:37:00,25.4,6.0,30.65,SW,222,2.0,9.0,43,0.00,,,0.00,weatherlink.com 1.10,2013-01-23 02:37:00,
2013-01-22 21:52:00,25.4,5.0,30.66,WSW,245,3.0,6.0,42,0.00,,,0.00,weatherlink.com 1.10,2013-01-23 02:52:00,
2013-01-22 22:07:00,25.5,6.0,30.65,WSW,256,3.0,9.0,43,0.00,,,0.00,weatherlink.com 1.10,2013-01-23 03:07:00,
2013-01-22 22:22:00,25.4,5.0,30.65,SW,234,7.0,7.0,42,0.00,,,0.00,weatherlink.com 1.10,2013-01-23 03:22:00,
2013-01-22 22:37:00,25.4,6.0,30.66,WSW,255,1.0,5.0,43,0.00,,,0.00,weatherlink.com 1.10,2013-01-23 03:37:00,
2013-01-22 22:52:00,25.4,5.0,30.66,SW,232,3.0,7.0,41,0.00,,,0.00,weatherlink.com 1.10,2013-01-23 03:52:00,
2013-01-22 23:07:00,25.3,6.0,30.65,SW,222,3.0,6.0,43,0.00,,,0.00,weatherlink.com 1.10,2013-01-23 04:07:00,
2013-01-22 23:22:00,25.4,6.0,30.65,East,90,3.0,4.0,44,0.00,,,0.00,weatherlink.com 1.10,2013-01-23 04:22:00,
2013-01-22 23:37:00,25.4,6.0,30.66,SW,222,8.0,8.0,44,0.00,,,0.00,weatherlink.com 1.10,2013-01-23 04:37:00,
2013-01-22 23:52:00,25.4,7.0,30.66,West,260,1.0,3.0,46,0.00,,,0.00,weatherlink.com 1.10,2013-01-23 04:52:00,